N8QF-1 Weather Reports


Display with metric or nautical units.
time (UTC)temp
F
wind
direction
speed
MPH
gust
MPH
rain 1hr
in
rain 24hr
in
rain mn
in
humidity
%
barometer
mb
20260506001642 61 204 4.0 7.0 0.05 0.00 0.40 93 1006.9
20260506001142 61 136 0.0 5.0 0.05 0.00 0.40 94 1006.9
20260506000141 61 165 5.0 6.0 0.05 0.00 0.38 94 1007.0
20260505235640 61 211 0.0 5.0 0.05 0.00 0.38 94 1007.1
20260505235139 61 173 0.0 4.0 0.05 0.00 0.37 94 1007.1
20260505234638 61 131 0.0 5.0 0.05 0.00 0.37 93 1007.1
20260505234137 61 148 2.0 8.0 0.05 0.00 0.36 93 1007.0
20260505233637 61 142 2.0 6.0 0.05 0.00 0.36 93 1007.1
20260505233138 61 159 3.0 6.0 0.05 0.00 0.36 93 1007.2
20260505232636 61 215 2.0 8.0 0.05 0.00 0.35 93 1007.2
20260505232134 61 210 3.0 7.0 0.05 0.00 0.35 93 1007.2
20260505231634 61 184 3.0 6.0 0.05 0.00 0.35 93 1007.2
20260505231133 62 198 1.0 7.0 0.05 0.00 0.34 93 1007.2
20260505230633 62 208 3.0 7.0 0.05 0.00 0.34 93 1007.3
20260505230134 61 169 5.0 8.0 0.05 0.00 0.33 93 1007.3
20260505225632 61 153 7.0 10.0 0.05 0.00 0.33 93 1007.3
20260505225131 61 201 0.0 8.0 0.08 0.00 0.33 93 1007.4
20260505224630 61 215 4.0 9.0 0.08 0.00 0.33 93 1007.5
20260505223127 61 225 5.0 7.0 0.08 0.00 0.32 94 1007.7
20260505222127 61 204 5.0 11.0 0.08 0.00 0.32 94 1007.9
20260505220624 61 177 0.0 11.0 0.08 0.00 0.29 93 1008.0
20260505220124 61 191 4.0 7.0 0.08 0.00 0.29 93 1007.9
20260505215623 61 181 7.0 10.0 0.08 0.00 0.28 93 1008.1
20260505215123 61 188 4.0 10.0 0.05 0.00 0.28 94 1008.0
20260505214622 61 204 3.0 10.0 0.05 0.00 0.28 94 1007.9
20260505214122 61 217 8.0 13.0 0.05 0.00 0.28 93 1007.9
20260505213621 61 194 8.0 12.0 0.05 0.00 0.27 93 1007.9
20260505213121 61 148 6.0 9.0 0.05 0.00 0.24 92 1008.0
20260505212620 61 148 8.0 12.0 0.05 0.00 0.22 92 1008.0
20260505212120 62 203 3.0 6.0 0.05 0.00 0.21 91 1008.0
20260505211619 62 166 1.0 8.0 0.05 0.00 0.20 91 1008.0
20260505210617 62 259 5.0 10.0 0.05 0.00 0.20 91 1008.2
20260505210116 61 211 4.0 8.0 0.05 0.00 0.20 91 1008.1
20260505205615 62 231 4.0 7.0 0.05 0.00 0.20 91 1007.9
20260505205115 61 255 5.0 8.0 0.07 0.00 0.20 91 1008.0
20260505204614 61 215 5.0 9.0 0.07 0.00 0.20 91 1008.1
20260505204114 61 233 3.0 13.0 0.07 0.00 0.20 91 1008.1
20260505203613 61 231 5.0 11.0 0.07 0.00 0.19 90 1008.1
20260505203111 61 250 5.0 10.0 0.07 0.00 0.19 90 1008.2
20260505202611 61 229 9.0 17.0 0.07 0.00 0.19 90 1008.2
20260505202110 62 235 6.0 9.0 0.07 0.00 0.18 90 1008.1
20260505201610 62 242 4.0 11.0 0.07 0.00 0.18 89 1008.0
20260505201109 61 190 3.0 10.0 0.07 0.00 0.17 88 1008.1
20260505200609 62 226 6.0 15.0 0.07 0.00 0.17 88 1008.2
20260505200108 62 231 10.0 17.0 0.07 0.00 0.16 87 1008.3
20260505195608 62 229 6.0 10.0 0.07 0.00 0.15 86 1008.5
20260505195107 63 210 6.0 11.0 0.00 0.00 0.14 85 1008.8
20260505194607 63 228 7.0 14.0 0.00 0.00 0.14 83 1008.8
20260505194106 63 217 9.0 21.0 0.00 0.00 0.12 81 1008.9
20260505193606 63 224 11.0 19.0 0.00 0.00 0.11 76 1008.8
20260505192605 67 235 11.0 17.0 0.00 0.00 0.08 64 1008.2
20260505192104 67 245 9.0 13.0 0.00 0.00 0.08 62 1008.1
20260505191600 68 233 6.0 12.0 0.00 0.00 0.08 62 1008.1
20260505191059 68 219 7.0 10.0 0.00 0.00 0.08 62 1008.1
20260505190559 68 231 9.0 12.0 0.00 0.00 0.08 61 1008.2
20260505190058 67 219 10.0 15.0 0.00 0.00 0.08 61 1008.3
20260505185557 68 239 10.0 13.0 0.00 0.00 0.08 61 1008.2
20260505185057 68 217 5.0 8.0 0.00 0.00 0.08 61 1008.3
20260505184556 68 207 7.0 10.0 0.00 0.00 0.08 61 1008.3
20260505184056 68 208 7.0 12.0 0.00 0.00 0.08 61 1008.5
20260505183555 67 183 7.0 12.0 0.00 0.00 0.08 61 1008.6
20260505183055 67 183 6.0 13.0 0.00 0.00 0.08 61 1008.5
20260505182554 67 188 7.0 9.0 0.00 0.00 0.08 61 1008.5
20260505181553 67 180 7.0 12.0 0.00 0.00 0.08 61 1008.8
20260505181054 67 201 7.0 14.0 0.00 0.00 0.08 61 1008.8
20260505180052 67 201 6.0 15.0 0.00 0.00 0.08 60 1008.8
20260505175551 67 231 6.0 14.0 0.00 0.00 0.08 60 1008.9
20260505175051 67 208 10.0 14.0 0.00 0.00 0.08 60 1008.9
20260505174550 67 203 9.0 12.0 0.00 0.00 0.08 60 1008.9
20260505174050 67 201 8.0 13.0 0.00 0.00 0.08 60 1009.0
20260505173549 67 212 8.0 12.0 0.00 0.00 0.08 60 1008.9
20260505173049 67 208 7.0 16.0 0.00 0.00 0.08 60 1009.0
20260505172548 67 218 6.0 14.0 0.00 0.00 0.08 61 1009.1
20260505172048 67 215 7.0 14.0 0.00 0.00 0.08 61 1009.1
20260505171547 67 218 5.0 12.0 0.00 0.00 0.08 61 1009.1
20260505171046 67 233 4.0 9.0 0.00 0.00 0.08 62 1009.1
20260505170546 67 226 9.0 12.0 0.00 0.00 0.08 61 1009.1
20260505170045 67 211 9.0 9.0 0.00 0.00 0.08 61 1009.1
20260505165545 67 187 4.0 14.0 0.00 0.00 0.08 63 1009.2
20260505165044 67 232 7.0 12.0 0.00 0.00 0.08 62 1009.1
20260505164544 67 191 7.0 14.0 0.00 0.00 0.08 62 1009.1
20260505164042 67 238 6.0 14.0 0.00 0.00 0.08 61 1009.1
20260505163542 66 217 3.0 8.0 0.00 0.00 0.08 61 1009.1
20260505162541 67 186 4.0 13.0 0.00 0.00 0.08 61 1009.2
20260505162040 67 200 7.0 18.0 0.00 0.00 0.08 61 1009.2
20260505161540 67 218 9.0 13.0 0.00 0.00 0.08 60 1009.1
20260505161039 68 221 5.0 16.0 0.00 0.00 0.08 62 1009.2
20260505152534 67 193 10.0 17.0 0.00 0.00 0.08 66 1008.9
20260505152033 66 242 9.0 16.0 0.00 0.00 0.08 66 1009.0
20260505151532 66 243 11.0 18.0 0.00 0.00 0.08 67 1009.0
20260505151032 66 181 8.0 13.0 0.00 0.00 0.08 67 1009.0
20260505140525 62 183 8.0 13.0 0.01 0.00 0.08 82 1008.7
20260505125014 59 184 4.0 10.0 0.01 0.00 0.07 92 1008.3
20260505124012 58 131 5.0 11.0 0.01 0.00 0.07 93 1008.1
20260505123512 58 155 6.0 11.0 0.01 0.00 0.07 93 1008.3
20260505123011 58 181 7.0 13.0 0.01 0.00 0.07 93 1008.5
20260505122511 58 193 4.0 10.0 0.01 0.00 0.07 93 1008.4
20260505122010 58 184 4.0 11.0 0.01 0.00 0.07 93 1008.5
20260505121510 58 176 6.0 13.0 0.01 0.00 0.07 93 1008.5
20260505121009 58 198 7.0 11.0 0.01 0.00 0.07 93 1008.5
20260505120008 58 174 5.0 10.0 0.01 0.00 0.07 92 1008.8
20260505115507 58 187 6.0 10.0 0.04 0.00 0.07 92 1008.5
20260505115007 58 169 6.0 11.0 0.04 0.00 0.07 92 1008.6
20260505114506 58 184 8.0 11.0 0.04 0.00 0.07 92 1008.5
20260505114006 58 198 5.0 8.0 0.04 0.00 0.07 92 1008.3
20260505113505 58 186 5.0 8.0 0.04 0.00 0.07 92 1008.2
20260505113005 57 156 5.0 9.0 0.04 0.00 0.07 92 1008.1
20260505112504 57 186 4.0 12.0 0.04 0.00 0.07 92 1008.1
20260505112004 57 187 7.0 8.0 0.04 0.00 0.07 92 1008.0
20260505111503 57 218 4.0 5.0 0.04 0.00 0.06 92 1007.9
20260505111003 57 197 3.0 5.0 0.04 0.00 0.06 92 1007.7
20260505110502 57 181 4.0 7.0 0.04 0.00 0.06 92 1007.4
20260505101456 58 203 2.0 7.0 0.02 0.00 0.05 89 1008.7
20260505100954 58 224 2.0 9.0 0.02 0.00 0.05 88 1008.8
20260505100454 58 270 5.0 9.0 0.02 0.00 0.04 89 1008.9
20260505095953 58 274 6.0 9.0 0.02 0.00 0.03 87 1009.0
20260505095453 59 267 5.0 9.0 0.00 0.00 0.02 87 1008.9
20260505094952 59 277 2.0 11.0 0.00 0.00 0.02 86 1008.9
20260505093950 59 252 8.0 8.0 0.00 0.00 0.01 84 1009.0
20260505093450 60 315 5.0 7.0 0.00 0.00 0.01 83 1008.9
20260505092949 60 280 3.0 9.0 0.00 0.00 0.01 82 1009.0
20260505092449 60 284 5.0 10.0 0.00 0.00 0.00 81 1008.9
20260505091948 61 295 5.0 10.0 0.00 0.00 0.00 80 1008.9
20260505091448 62 323 4.0 8.0 0.00 0.00 0.00 77 1008.7
20260505090947 62 295 5.0 7.0 0.00 0.00 0.00 74 1008.3
20260505090447 63 3 4.0 9.0 0.00 0.00 0.00 71 1007.9
20260505085946 63 264 7.0 9.0 0.00 0.00 0.00 70 1008.4
20260505085445 63 308 3.0 9.0 0.00 0.00 0.00 70 1008.0
20260505084945 63 300 5.0 8.0 0.00 0.00 0.00 69 1008.3
20260505084444 63 277 4.0 6.0 0.00 0.00 0.00 68 1007.9
20260505083441 64 305 1.0 5.0 0.00 0.00 0.00 67 1007.5
20260505082941 64 319 3.0 7.0 0.00 0.00 0.00 67 1007.5
20260505082440 64 294 4.0 8.0 0.00 0.00 0.00 64 1007.4
20260505081940 64 277 2.0 8.0 0.00 0.00 0.00 64 1007.3
20260505081439 65 347 2.0 8.0 0.00 0.00 0.00 62 1007.1
20260505080939 65 350 4.0 12.0 0.00 0.00 0.00 60 1007.2
20260505075937 67 293 6.0 12.0 0.00 0.00 0.00 54 1007.3
20260505075436 67 276 7.0 13.0 0.00 0.00 0.00 53 1007.4
20260505074435 68 238 5.0 15.0 0.00 0.00 0.00 51 1006.9
20260505073434 68 231 8.0 11.0 0.00 0.00 0.00 51 1006.8
20260505072934 68 233 7.0 11.0 0.00 0.00 0.00 51 1006.7
20260505072433 68 233 7.0 14.0 0.00 0.00 0.00 51 1006.7
20260505071432 68 236 10.0 14.0 0.00 0.00 0.00 50 1006.7
20260505070931 68 256 6.0 12.0 0.00 0.00 0.00 49 1006.6
20260505070431 69 233 5.0 16.0 0.00 0.00 0.00 49 1006.7
20260505065430 69 264 6.0 13.0 0.00 0.00 0.00 49 1006.7
20260505064929 69 242 5.0 13.0 0.00 0.00 0.00 48 1006.7
20260505064429 69 210 7.0 14.0 0.00 0.00 0.00 48 1006.6
20260505063928 70 214 5.0 19.0 0.00 0.00 0.00 47 1006.4
20260505062427 70 221 11.0 17.0 0.00 0.00 0.00 46 1006.3
20260505061926 70 229 11.0 21.0 0.00 0.00 0.00 46 1006.3
20260505060925 70 190 11.0 19.0 0.00 0.00 0.00 46 1006.3
20260505060424 70 198 11.0 21.0 0.00 0.00 0.00 45 1006.2
20260505055423 70 238 7.0 17.0 0.00 0.00 0.00 45 1005.9
20260505054422 71 183 9.0 18.0 0.00 0.00 0.00 45 1005.8
20260505053921 71 218 5.0 19.0 0.00 0.00 0.00 45 1005.7
20260505053420 71 184 10.0 18.0 0.00 0.00 0.00 45 1005.7
20260505052920 70 221 9.0 22.0 0.00 0.00 0.00 45 1005.6
20260505052419 70 222 10.0 17.0 0.00 0.00 0.00 45 1005.5
20260505051919 70 172 7.0 22.0 0.00 0.00 0.00 45 1005.4
20260505051418 71 214 7.0 29.0 0.00 0.00 0.00 45 1005.4
20260505050918 71 212 10.0 21.0 0.00 0.00 0.00 45 1005.5
20260505050417 70 205 11.0 14.0 0.00 0.00 0.00 46 1005.6
20260505041411 70 180 9.0 16.0 0.00 0.00 0.00 50 1006.1
20260505040911 70 197 9.0 13.0 0.00 0.00 0.00 50 1006.0
20260505040410 70 198 8.0 11.0 0.00 0.00 0.00 50 1006.1
20260505035909 69 187 6.0 11.0 0.00 0.00 0.00 50 1006.1
20260505035409 69 165 6.0 14.0 0.00 0.00 0.00 50 1006.2
20260505034908 69 174 6.0 13.0 0.00 0.00 0.00 51 1006.2
20260505034408 69 208 5.0 11.0 0.00 0.00 0.00 51 1006.2
20260505033907 69 205 7.0 13.0 0.00 0.00 0.00 51 1006.2
20260505031404 70 204 7.0 12.0 0.00 0.00 0.00 51 1006.2
20260505030903 70 194 6.0 8.0 0.00 0.00 0.00 51 1006.2
20260505030403 70 188 5.0 11.0 0.00 0.00 0.00 51 1006.3
20260505025902 70 181 5.0 10.0 0.00 0.00 0.00 51 1006.1
20260505025402 70 179 5.0 10.0 0.00 0.00 0.00 51 1006.1
20260505024901 70 173 5.0 12.0 0.00 0.00 0.00 51 1006.2
20260505024401 70 174 5.0 9.0 0.00 0.00 0.00 51 1006.0
20260505023900 70 197 4.0 9.0 0.00 0.00 0.00 51 1005.9
20260505023359 70 190 6.0 12.0 0.00 0.00 0.00 50 1005.9
20260505022858 70 188 6.0 10.0 0.00 0.00 0.00 50 1005.9
20260505022358 71 257 6.0 10.0 0.00 0.00 0.00 49 1005.8
20260505021857 71 188 5.0 12.0 0.00 0.00 0.00 49 1005.7
20260505021356 71 183 6.0 12.0 0.00 0.00 0.00 48 1005.5
20260505020856 71 184 7.0 11.0 0.00 0.00 0.00 48 1005.5
20260505020355 71 165 7.0 10.0 0.00 0.00 0.00 48 1005.4
20260505015855 71 194 6.0 11.0 0.00 0.00 0.00 48 1005.4
20260505015355 71 203 5.0 11.0 0.00 0.00 0.00 48 1005.3
20260505014854 71 181 5.0 9.0 0.00 0.00 0.00 48 1005.2
20260505014353 71 180 5.0 11.0 0.00 0.00 0.00 48 1005.3
20260505013351 71 214 4.0 8.0 0.00 0.00 0.00 48 1005.2
20260505012851 71 204 6.0 9.0 0.00 0.00 0.00 47 1005.1
20260505012350 71 204 5.0 9.0 0.00 0.00 0.00 47 1005.2
20260505011850 72 195 4.0 8.0 0.00 0.00 0.00 46 1005.1
20260505011349 72 195 4.0 10.0 0.00 0.00 0.00 46 1005.1
20260505010348 72 197 8.0 11.0 0.00 0.00 0.00 45 1005.0
20260505005848 72 201 6.0 10.0 0.00 0.00 0.00 45 1004.9
20260505005346 72 193 6.0 10.0 0.00 0.00 0.00 44 1005.0
20260505004846 73 205 6.0 10.0 0.00 0.00 0.00 44 1004.9
20260505004345 73 210 7.0 10.0 0.00 0.00 0.00 44 1004.9
20260505003845 73 204 5.0 14.0 0.00 0.00 0.00 43 1004.9
20260505003344 73 203 8.0 17.0 0.00 0.00 0.00 42 1005.0
20260505002844 74 187 8.0 14.0 0.00 0.00 0.00 42 1005.0
20260505002343 74 236 8.0 14.0 0.00 0.00 0.00 41 1005.0